SCP
0 0 -0 -0 -0 -0 -0 -0 -0 -0 -0 -0 -0 -0 -0 -0 -0 -0 -0 -0 -0 -0 -0 -0 -0 0 -0 -0 0 -0 -0 -0 0 0 -0 -0 -0 0 0 0 -0 -0 0 -0 0 -0 -0
0 0 0 -0 -0 -0 -0 -0 -0 -0 -0 -0 -0 -0 -0 -0 -0 -0 -0 -0 -0 -0 -0 -0 0 -0 -0 -0 -0 -0 -0 -0 0 -0 -0 -0 0 0 0 -0 0 -0 -0 -0 0 0 0
0 0 0 -0 -0 -0 -0 -0 -0 -0 -0 -0 -0 -0 -0 -0 -0 -0 -0 -0 -0 -0 -0 -0 -0 -0 -0 -0 -0 0 -0 -0 -0 -0 -0 -0 0 0 -0 -0 -0 -0 -0 0 0 0 0
0 0 -0 -0 -0 -0 -0 -0 -0 -0 -0 -0 -0 -0 -0 -0 -0 -0 -0 -0 -0 -0 -0 0 0 0 -0 -0 -0 0 -0 -0 -0 -0 -0 0 0 0 -0 0 -0 0 0 0 0 0 -0
0 0 -0 -0 -0 -0 -0 -0 -0 -0 -0 -0 -0 -0 -0 -0 -0 -0 -0 -0 0 -0 0 0 0 0 0 -0 -0 0 0 0 -0 -0 -0 0 0 0 0 0 -0 0 -0 0 0 -0 0
0 0 0 -0 -0 -0 -0 -0 -0 -0 -0 -0 -0 -0 -0 -0 -0 -0 -0 -0 0 0 0 0 0 0 -0 -0 -0 0 0 0 -0 -0 -0 -0 0 -0 0 0 0 0 -0 -0 0 -0 -0
0 0 0 0 -0 -0 -0 -0 -0 -0 -0 -0 -0 -0 -0 -0 -0 -0 0 0 0 0 0 0 0 -0 -0 -0 -0 0 0 -0 0 0 0 0 0 0 -0 0 0 0 -0 -0 -0 -0 -0
-0 -0 -0 0 0 -0 -0 -0 -0 -0 -0 -0 -0 -0 -0 -0 -0 -0 0 0 0 0 -0 0 -0 -0 -0 0 0 -0 0 0 0 0 0 0 0 0 -0 -0 0 0 0 0 -0 0 0
0 0 0 -0 -0 0 0 0 0 0 0 0 0 0 -0 -0 -0 0 0 0 0 0 0 0 0 0 0 0 -0 -0 0 0 0 0 0 -0 -0 -0 -0 -0 0 0 -0 -0 -0 -0 -0
-0 -0 -0 -0 0 -0 -0 -0 -0 0 0 0 0 0 0 -0 0 0 0 0 0 0 0 0 0 0 0 0 -0 -0 0 0 -0 0 0 -0 -0 -0 -0 -0 0 -0 -0 -0 -0 0 0
0 0 0 0 -0 0 0 0 0 -0 0 0 -0 0 0 0 0 0 0 0 0 0 0 0 0 0 0 0 0 -0 0 0 0 0 0 -0 -0 -0 0 0 0 -0 -0 -0 -0 0 0
0 0 -0 -0 -0 -0 -0 -0 -0 -0 -0 -0 -0 0 0 0 0 0 0 0 0 0 0 0 0 0 0 -0 -0 0 0 -0 -0 0 0 -0 -0 0 0 0 0 0 0 0 0 0 0
0 0 0 -0 -0 -0 -0 -0 -0 -0 -0 -0 -0 -0 0 0 0 0 0 0 0 0 0 0 0 0 0 0 0 0 0 -0 -0 0 -0 0 0 -0 -0 -0 0 0 0 0 0 0 0
0 0 0 -0 -0 -0 -0 -0 -0 -0 -0 -0 -0 -0 0 0 0 0 0 0 0 0 0 0 0 0 0 0 0 0 0 0 -0 0 0 -0 -0 -0 -0 -0 0 -0 0 0 -0 0 0
0 0 0 0 0 0 0 0 -0 -0 -0 -0 0 0 0 0 0 0 0 0 0 0 0 0 0 0 0 0 0 0 0 0 0 0 -0 -0 -0 -0 -0 0 0 -0 0 0 0 0 0
0 -0 0 0 0 0 0 0 0 -0 -0 -0 0 0 0 0 0 0 0 0 0 0 0 0 0 0 0 0 0 0 0 0 0 0 0 -0 0 -0 0 0 0 0 0 0 0 0 0
0 0 0 0 0 0 0 0 0 0 -0 0 0 0 0 -0 0 0 0 0 0 0 0 0 -0 0 0 0 0 0 -0 -0 0 0 0 -0 0 0 0 0 0 0 0 0 0 0 0
0 0 0 0 0 0 0 0 0 0 0 0 0 0 0 0 0 0 0 0 0 0 0 0 0 0 0 0 0 0 0 0 0 0 0 0 0 0 0 0 -0 0 0 0 0 0 0
0 0 0 0 0 0 0 0 0 0 0 0 0 0 0 0 0 0 0 0 0 0 0 0 0 0 0 0 0 0 0 0 0 0 0 0 0 0 0 0 0 0 0 0 0 0 0
0 0 0 0 0 0 0 0 0 0 0 0 0 0 0 0 0 0 0 0 0 0 0 0 0 0 0 0 0 0 0 0 0 0 0 0 0 0 -0 0 0 0 0 0 0 0 0
0 0 0 0 0 0 0 0 0 0 0 0 0 0 0 0 0 0 0 0 0 0 0 0 0 0 0 0 0 0 0 -0 0 0 0 0 0 0 0 0 0 0 0 0 0 0 0
0 0 0 0 0 0 0 0 0 0 0 0 0 0 0 0 0 0 0 0 0 0 0 0 0 0 0 0 0 0 0 0 0 0 0 0 0 0 0 0 0 0 0 0 0 0 0
0 0 0 0 0 0 0 0 0 0 0 0 0 0 0 0 0 0 0 0 0 0 0 0 0 0 0 0 0 0 0 0 0 0 0 0 0 0 0 0 0 0 0 0 0 0 0
0 0 0 0 0 0 0 0 0 0 0 0 0 0 0 0 0 0 0 0 0 0 0 0 0 0 0 0 0 0 0 0 0 0 0 0 0 0 0 0 0 0 0 0 0 0 0
0 0 0 0 0 0 0 0 0 0 0 0 0 0 0 0 0 0 0 0 0 0 0 0 0 0 0 0 0 0 0 0 0 0 0 0 0 0 0 0 0 0 0 0 0 0 0
0 0 0 0 0 0 0 0 0 0 0 0 0 0 0 0 0 0 0 0 0 0 0 0 0 0 0 0 0 0 0 0 0 0 0 0 0 0 0 0 0 0 0 0 0 0 0
0 0 0 0 0 0 0 0 0 0 0 0 0 0 0 0 0 0 0 0 0 0 0 0 0 0 0 0 0 0 0 0 0 0 0 0 0 0 0 0 0 0 0 0 0 0 0
0 0 0 0 0 0 0 0 0 0 0 0 0 0 0 0 0 0 0 0 0 0 0 0 0 0 0 0 0 0 0 0 0 0 0 0 0 0 0 0 0 0 0 0 0 0 0
0 0 0 0 0 0 0 0 0 0 0 0 0 0 0 0 0 0 0 0 0 0 0 0 0 0 0 0 0 0 0 0 0 0 0 0 0 0 0 0 0 0 0 0 0 0 0
Wind_Speed_500mb
31 31 31 31 31 31 32 33 33 32 31 31 30 28 27 25 24 24 24 23 18 13 10 9 9 8 2 8 14 10 12 10 17 15 9 2 3 6 4 6 5 6 10 17 15 26 26
33 33 33 33 33 33 33 33 33 33 32 31 30 29 28 27 25 24 23 23 19 15 12 9 7 7 6 6 14 13 3 4 15 19 12 10 4 11 12 4 4 7 23 18 11 24 22
37 35 33 34 33 34 34 34 34 34 33 32 30 28 28 27 26 24 23 23 21 16 13 11 10 10 17 19 10 18 6 6 13 19 17 11 3 6 18 2 11 10 6 9 8 8 11
36 38 35 34 33 34 34 35 34 34 35 34 32 30 28 27 27 25 23 24 21 18 16 12 11 14 14 12 21 20 15 7 9 17 13 6 8 18 8 14 5 7 4 5 8 15 26
37 37 38 37 35 35 34 34 35 35 35 35 34 32 30 29 28 25 22 24 21 19 17 12 12 9 14 19 29 19 27 19 9 14 12 10 10 11 18 8 8 7 5 3 5 20 10
39 38 37 37 37 36 35 35 35 35 36 37 36 34 31 30 29 25 23 19 20 22 12 7 17 11 15 12 20 29 30 24 15 11 13 9 6 8 5 6 8 10 7 6 10 15 12
42 41 40 39 39 37 37 36 36 37 37 37 38 38 35 30 30 26 17 11 11 5 9 17 30 20 29 27 20 22 32 28 29 9 8 3 8 20 22 14 2 9 4 8 5 11 11
41 41 41 41 41 41 40 39 39 39 38 38 39 39 37 34 32 21 8 6 15 17 24 34 38 51 49 31 5 17 32 27 14 10 9 9 12 26 9 15 12 12 9 10 6 6 9
46 45 42 41 41 41 42 41 42 42 42 41 39 38 38 33 25 7 5 10 22 22 10 25 36 43 43 32 29 31 42 35 9 11 13 16 16 7 8 6 13 12 18 13 1 12 7
50 48 45 44 42 41 42 42 42 42 43 42 41 39 38 31 11 14 5 13 20 8 9 13 9 11 31 30 11 42 53 33 6 20 15 12 16 16 10 14 16 15 26 27 13 11 5
48 42 41 41 42 43 44 43 44 44 44 41 39 37 33 32 28 14 13 10 12 2 8 4 6 10 34 37 11 33 56 36 17 12 13 16 7 6 10 28 17 25 15 33 22 6 5
45 41 40 41 42 41 42 43 44 43 45 45 41 39 35 32 26 10 8 10 3 11 12 11 12 14 13 16 3 18 36 22 6 12 7 15 7 14 19 12 18 6 13 17 13 7 6
46 44 42 41 40 41 42 43 42 42 43 47 42 39 38 33 19 8 3 5 8 7 10 10 5 6 8 9 7 10 14 14 12 8 6 12 11 8 10 9 6 11 12 6 5 1 11
46 46 44 42 40 40 42 43 45 45 46 49 45 35 33 28 20 16 10 9 8 4 10 8 10 4 16 13 8 13 15 13 11 6 6 7 15 8 10 14 16 9 17 12 11 7 8
44 42 40 39 38 41 44 47 49 49 51 53 46 33 16 4 25 28 18 5 14 11 7 12 15 9 8 4 3 12 15 25 15 18 16 10 12 9 10 11 17 9 5 9 14 8 5
41 38 37 37 39 42 45 48 50 50 49 50 44 19 23 14 20 31 8 7 7 5 8 7 4 6 7 10 9 10 18 14 12 21 14 10 4 11 14 8 5 17 15 5 5 9 8
36 35 35 38 41 43 47 50 53 53 51 46 27 8 12 26 31 11 6 12 9 18 15 5 3 7 7 5 7 5 10 17 18 7 15 11 7 14 1 4 16 4 2 11 12 8 11
35 35 37 39 40 42 43 46 50 54 54 48 18 7 20 29 6 5 4 7 9 17 29 15 8 16 15 10 9 9 12 11 9 19 21 19 11 9 23 10 2 3 10 12 10 8 3
35 37 38 38 38 40 41 42 45 49 53 52 19 10 10 14 2 5 9 9 7 8 9 5 8 15 12 14 5 16 12 14 14 7 15 16 9 5 20 14 7 6 8 10 11 7 12
36 37 38 36 36 36 37 38 40 42 42 34 13 8 9 13 12 5 9 8 11 23 11 14 8 12 8 11 14 14 8 8 10 8 14 25 8 16 23 18 11 9 7 9 13 8 9
33 35 35 35 36 38 38 37 35 35 34 21 15 4 7 8 8 9 3 5 11 12 12 21 11 12 9 9 14 8 11 10 7 3 6 7 13 12 14 16 12 10 19 15 8 9 12
31 32 35 36 38 39 41 40 35 32 31 16 10 12 14 14 16 11 9 6 13 10 5 9 11 23 4 6 8 12 13 10 11 6 8 1 3 6 1 8 13 11 17 15 14 9 5
31 31 32 34 35 38 40 42 36 30 28 14 13 8 6 9 10 5 3 8 14 21 14 13 21 8 8 13 41 50 47 45 23 7 6 4 6 6 5 3 7 6 14 12 9 8 13
28 30 29 29 30 33 37 41 37 31 24 22 16 14 8 7 4 3 14 17 17 21 9 22 22 9 12 48 44 29 25 34 22 16 12 10 6 8 4 7 5 13 7 0 11 11 13
28 27 27 27 27 30 35 36 31 30 25 13 7 7 7 7 7 25 17 10 30 28 9 14 11 33 36 26 10 12 9 6 9 12 11 17 8 2 10 6 10 6 7 11 11 14 18
27 27 26 26 26 28 30 29 32 32 29 22 7 5 9 9 8 7 14 19 6 8 12 10 39 26 22 3 8 10 8 7 8 6 7 9 12 8 2 11 11 13 5 9 9 8 7
27 29 28 27 25 25 24 26 27 27 28 27 19 14 14 15 27 14 5 5 16 9 7 14 25 19 19 2 5 2 11 7 6 9 9 5 7 13 2 2 12 14 17 26 14 14 10
25 28 30 29 25 20 22 25 26 29 32 32 26 22 22 21 42 55 49 37 21 9 3 20 21 7 10 6 6 6 6 7 7 3 2 7 11 8 9 8 15 16 7 13 17 4 13
23 26 29 33 25 18 21 24 28 33 37 36 29 22 22 32 34 41 60 68 60 61 52 17 9 11 9 5 4 2 4 7 13 4 7 3 3 9 12 11 16 29 10 17 14 16 16
Wind_Direction_500mb
10 8 6 6 4 4 3 2 3 2 1 360 359 357 354 349 346 346 346 352 354 350 349 354 3 6 334 226 220 122 102 164 211 230 234 176 25 49 41 11 309 32 64 48 112 105 95
358 357 356 356 355 355 354 353 354 354 353 352 351 349 347 343 337 336 337 339 343 341 324 321 316 334 322 257 210 192 131 285 245 231 228 201 146 104 92 11 57 326 88 115 118 86 118
350 347 347 348 349 350 349 350 350 349 349 347 345 344 341 337 331 327 328 323 329 329 322 298 289 294 286 235 156 166 173 313 240 238 214 200 226 255 141 193 117 84 80 100 147 121 121
354 357 354 350 349 348 348 349 349 349 348 346 344 340 336 331 327 321 318 312 316 314 318 290 267 283 263 177 171 195 203 215 202 188 193 220 307 142 148 121 47 43 88 109 204 158 164
355 356 356 355 352 351 350 349 348 347 347 346 344 341 336 330 323 319 316 305 305 300 299 279 256 266 265 200 211 223 217 212 186 192 199 263 298 128 122 90 26 14 285 160 197 200 147
352 350 350 352 351 350 348 347 347 347 346 345 344 342 338 331 321 319 319 305 302 299 262 260 253 297 233 189 239 241 210 210 211 217 238 235 188 109 74 109 225 202 229 183 184 188 180
349 347 346 346 348 345 342 342 342 342 341 341 341 341 337 334 319 318 318 307 343 356 274 266 277 254 279 306 294 224 200 204 220 205 152 59 88 237 204 194 204 163 179 221 209 194 143
351 347 345 343 341 339 340 336 334 334 334 334 334 336 337 336 323 319 343 51 61 331 289 280 252 257 252 251 322 216 192 186 168 186 106 35 217 240 140 173 168 153 185 256 81 152 143
352 348 346 342 340 339 338 334 333 332 329 327 325 327 331 339 331 327 3 45 336 333 253 288 245 235 234 227 226 231 197 195 150 165 177 180 215 140 188 175 157 196 199 214 224 122 44
345 343 344 344 342 340 338 338 337 334 331 327 323 322 324 336 330 332 281 329 344 336 36 278 243 237 197 201 241 218 200 184 173 194 174 216 251 228 229 228 156 213 210 199 173 128 219
340 339 341 341 340 338 335 333 333 336 335 329 326 323 317 315 307 315 268 298 344 320 340 246 184 155 173 163 152 202 201 191 177 182 120 230 184 150 216 241 156 230 155 197 183 95 75
352 348 344 342 339 337 336 334 330 329 329 324 325 320 308 301 299 283 272 244 348 43 255 321 138 160 129 203 229 141 187 199 233 174 207 228 242 177 225 240 193 79 71 46 53 60 318
352 349 347 346 344 344 342 340 338 337 331 324 324 315 299 283 271 244 291 154 47 162 317 345 323 175 157 177 167 145 171 204 190 129 281 327 270 251 187 262 149 96 88 52 25 4 226
351 350 351 353 355 354 352 350 349 347 341 330 331 315 294 278 243 224 177 60 193 240 256 319 326 192 187 160 196 202 159 217 233 99 116 158 318 180 176 184 194 172 153 154 194 187 239
350 352 354 358 0 358 354 351 349 348 344 335 335 332 320 231 198 188 175 106 205 212 307 356 332 43 346 101 44 160 198 217 208 163 174 154 273 284 195 199 143 181 151 182 99 1 57
350 355 357 359 357 355 354 352 350 350 349 340 340 355 16 147 161 168 88 234 248 267 358 358 284 26 352 330 346 172 180 213 220 184 164 220 282 227 283 141 124 161 162 92 13 135 234
352 353 354 353 353 354 353 352 351 351 352 350 352 41 32 128 136 139 152 230 264 290 334 305 227 323 244 308 228 244 242 244 206 153 153 144 121 268 30 216 163 71 188 54 113 125 157
353 353 353 352 352 351 353 354 353 353 357 2 2 49 137 143 44 47 157 213 317 293 298 247 219 222 228 200 281 251 240 215 142 165 169 204 157 243 235 270 218 108 172 137 128 217 153
351 351 350 350 350 351 353 356 357 355 1 360 360 356 129 260 72 343 314 300 272 327 298 268 259 216 221 206 228 209 233 262 284 175 191 177 213 251 322 349 6 145 158 120 113 89 184
346 347 348 351 351 352 354 356 358 358 0 1 8 8 355 55 77 45 360 291 337 323 284 342 249 7 323 254 216 258 236 270 326 211 328 163 147 170 222 215 157 143 175 127 128 113 167
349 351 355 355 352 353 353 357 360 358 3 13 19 31 13 324 337 335 242 300 324 0 331 350 350 12 338 335 335 246 250 272 248 252 116 175 189 170 223 212 157 153 168 169 120 162 157
353 354 354 354 356 358 357 355 360 2 6 24 27 7 349 301 307 303 5 357 340 349 287 327 347 324 30 139 183 277 350 283 219 269 131 339 172 177 291 205 182 162 172 168 147 145 203
350 352 350 353 358 357 355 352 355 4 13 36 17 3 326 304 332 347 30 333 316 348 286 335 319 306 309 314 308 279 262 255 258 262 157 86 172 65 224 125 81 23 211 183 164 180 146
349 347 346 349 355 358 357 354 356 2 13 18 24 9 358 290 320 339 323 322 308 309 266 295 331 342 299 322 317 300 263 260 254 250 269 118 298 115 170 60 177 237 285 182 175 174 206
344 345 347 347 352 353 354 355 357 358 3 10 32 3 322 291 276 294 350 316 312 312 291 288 312 314 313 312 359 336 322 300 269 222 200 127 131 99 128 184 275 270 186 182 165 241 193
338 342 344 345 344 345 350 353 357 3 6 5 342 302 287 298 249 234 328 300 317 320 327 293 329 322 332 128 72 307 265 246 240 213 69 74 102 100 140 154 205 239 199 137 88 306 192
334 343 346 342 340 340 343 344 345 343 340 341 337 284 280 268 281 270 253 293 305 283 271 304 334 322 357 100 112 159 273 258 248 198 172 116 116 168 145 127 289 252 283 129 113 235 214
330 338 341 340 337 339 340 339 338 336 332 328 323 300 272 269 277 278 274 272 252 239 256 338 334 340 330 60 137 166 273 293 298 274 21 143 137 177 113 138 246 208 235 164 194 256 234
324 333 334 335 331 330 333 334 336 333 326 320 321 320 287 275 261 282 278 274 257 270 269 243 254 332 275 287 11 96 170 314 338 259 26 52 226 160 175 209 303 310 277 158 176 149 188
Wind_Speed_850mb
31 31 31 31 31 31 32 33 33 32 31 31 30 28 27 25 24 24 24 23 18 13 10 9 9 8 2 8 14 10 12 10 17 15 9 2 3 6 4 6 5 6 10 17 15 26 26
33 33 33 33 33 33 33 33 33 33 32 31 30 29 28 27 25 24 23 23 19 15 12 9 7 7 6 6 14 13 3 4 15 19 12 10 4 11 12 4 4 7 23 18 11 24 22
37 35 33 34 33 34 34 34 34 34 33 32 30 28 28 27 26 24 23 23 21 16 13 11 10 10 17 19 10 18 6 6 13 19 17 11 3 6 18 2 11 10 6 9 8 8 11
36 38 35 34 33 34 34 35 34 34 35 34 32 30 28 27 27 25 23 24 21 18 16 12 11 14 14 12 21 20 15 7 9 17 13 6 8 18 8 14 5 7 4 5 8 15 26
37 37 38 37 35 35 34 34 35 35 35 35 34 32 30 29 28 25 22 24 21 19 17 12 12 9 14 19 29 19 27 19 9 14 12 10 10 11 18 8 8 7 5 3 5 20 10
39 38 37 37 37 36 35 35 35 35 36 37 36 34 31 30 29 25 23 19 20 22 12 7 17 11 15 12 20 29 30 24 15 11 13 9 6 8 5 6 8 10 7 6 10 15 12
42 41 40 39 39 37 37 36 36 37 37 37 38 38 35 30 30 26 17 11 11 5 9 17 30 20 29 27 20 22 32 28 29 9 8 3 8 20 22 14 2 9 4 8 5 11 11
41 41 41 41 41 41 40 39 39 39 38 38 39 39 37 34 32 21 8 6 15 17 24 34 38 51 49 31 5 17 32 27 14 10 9 9 12 26 9 15 12 12 9 10 6 6 9
46 45 42 41 41 41 42 41 42 42 42 41 39 38 38 33 25 7 5 10 22 22 10 25 36 43 43 32 29 31 42 35 9 11 13 16 16 7 8 6 13 12 18 13 1 12 7
50 48 45 44 42 41 42 42 42 42 43 42 41 39 38 31 11 14 5 13 20 8 9 13 9 11 31 30 11 42 53 33 6 20 15 12 16 16 10 14 16 15 26 27 13 11 5
48 42 41 41 42 43 44 43 44 44 44 41 39 37 33 32 28 14 13 10 12 2 8 4 6 10 34 37 11 33 56 36 17 12 13 16 7 6 10 28 17 25 15 33 22 6 5
45 41 40 41 42 41 42 43 44 43 45 45 41 39 35 32 26 10 8 10 3 11 12 11 12 14 13 16 3 18 36 22 6 12 7 15 7 14 19 12 18 6 13 17 13 7 6
46 44 42 41 40 41 42 43 42 42 43 47 42 39 38 33 19 8 3 5 8 7 10 10 5 6 8 9 7 10 14 14 12 8 6 12 11 8 10 9 6 11 12 6 5 1 11
46 46 44 42 40 40 42 43 45 45 46 49 45 35 33 28 20 16 10 9 8 4 10 8 10 4 16 13 8 13 15 13 11 6 6 7 15 8 10 14 16 9 17 12 11 7 8
44 42 40 39 38 41 44 47 49 49 51 53 46 33 16 4 25 28 18 5 14 11 7 12 15 9 8 4 3 12 15 25 15 18 16 10 12 9 10 11 17 9 5 9 14 8 5
41 38 37 37 39 42 45 48 50 50 49 50 44 19 23 14 20 31 8 7 7 5 8 7 4 6 7 10 9 10 18 14 12 21 14 10 4 11 14 8 5 17 15 5 5 9 8
36 35 35 38 41 43 47 50 53 53 51 46 27 8 12 26 31 11 6 12 9 18 15 5 3 7 7 5 7 5 10 17 18 7 15 11 7 14 1 4 16 4 2 11 12 8 11
35 35 37 39 40 42 43 46 50 54 54 48 18 7 20 29 6 5 4 7 9 17 29 15 8 16 15 10 9 9 12 11 9 19 21 19 11 9 23 10 2 3 10 12 10 8 3
35 37 38 38 38 40 41 42 45 49 53 52 19 10 10 14 2 5 9 9 7 8 9 5 8 15 12 14 5 16 12 14 14 7 15 16 9 5 20 14 7 6 8 10 11 7 12
36 37 38 36 36 36 37 38 40 42 42 34 13 8 9 13 12 5 9 8 11 23 11 14 8 12 8 11 14 14 8 8 10 8 14 25 8 16 23 18 11 9 7 9 13 8 9
33 35 35 35 36 38 38 37 35 35 34 21 15 4 7 8 8 9 3 5 11 12 12 21 11 12 9 9 14 8 11 10 7 3 6 7 13 12 14 16 12 10 19 15 8 9 12
31 32 35 36 38 39 41 40 35 32 31 16 10 12 14 14 16 11 9 6 13 10 5 9 11 23 4 6 8 12 13 10 11 6 8 1 3 6 1 8 13 11 17 15 14 9 5
31 31 32 34 35 38 40 42 36 30 28 14 13 8 6 9 10 5 3 8 14 21 14 13 21 8 8 13 41 50 47 45 23 7 6 4 6 6 5 3 7 6 14 12 9 8 13
28 30 29 29 30 33 37 41 37 31 24 22 16 14 8 7 4 3 14 17 17 21 9 22 22 9 12 48 44 29 25 34 22 16 12 10 6 8 4 7 5 13 7 0 11 11 13
28 27 27 27 27 30 35 36 31 30 25 13 7 7 7 7 7 25 17 10 30 28 9 14 11 33 36 26 10 12 9 6 9 12 11 17 8 2 10 6 10 6 7 11 11 14 18
27 27 26 26 26 28 30 29 32 32 29 22 7 5 9 9 8 7 14 19 6 8 12 10 39 26 22 3 8 10 8 7 8 6 7 9 12 8 2 11 11 13 5 9 9 8 7
27 29 28 27 25 25 24 26 27 27 28 27 19 14 14 15 27 14 5 5 16 9 7 14 25 19 19 2 5 2 11 7 6 9 9 5 7 13 2 2 12 14 17 26 14 14 10
25 28 30 29 25 20 22 25 26 29 32 32 26 22 22 21 42 55 49 37 21 9 3 20 21 7 10 6 6 6 6 7 7 3 2 7 11 8 9 8 15 16 7 13 17 4 13
23 26 29 33 25 18 21 24 28 33 37 36 29 22 22 32 34 41 60 68 60 61 52 17 9 11 9 5 4 2 4 7 13 4 7 3 3 9 12 11 16 29 10 17 14 16 16
Wind_Direction_850mb
10 8 6 6 4 4 3 2 3 2 1 360 359 357 354 349 346 346 346 352 354 350 349 354 3 6 334 226 220 122 102 164 211 230 234 176 25 49 41 11 309 32 64 48 112 105 95
358 357 356 356 355 355 354 353 354 354 353 352 351 349 347 343 337 336 337 339 343 341 324 321 316 334 322 257 210 192 131 285 245 231 228 201 146 104 92 11 57 326 88 115 118 86 118
350 347 347 348 349 350 349 350 350 349 349 347 345 344 341 337 331 327 328 323 329 329 322 298 289 294 286 235 156 166 173 313 240 238 214 200 226 255 141 193 117 84 80 100 147 121 121
354 357 354 350 349 348 348 349 349 349 348 346 344 340 336 331 327 321 318 312 316 314 318 290 267 283 263 177 171 195 203 215 202 188 193 220 307 142 148 121 47 43 88 109 204 158 164
355 356 356 355 352 351 350 349 348 347 347 346 344 341 336 330 323 319 316 305 305 300 299 279 256 266 265 200 211 223 217 212 186 192 199 263 298 128 122 90 26 14 285 160 197 200 147
352 350 350 352 351 350 348 347 347 347 346 345 344 342 338 331 321 319 319 305 302 299 262 260 253 297 233 189 239 241 210 210 211 217 238 235 188 109 74 109 225 202 229 183 184 188 180
349 347 346 346 348 345 342 342 342 342 341 341 341 341 337 334 319 318 318 307 343 356 274 266 277 254 279 306 294 224 200 204 220 205 152 59 88 237 204 194 204 163 179 221 209 194 143
351 347 345 343 341 339 340 336 334 334 334 334 334 336 337 336 323 319 343 51 61 331 289 280 252 257 252 251 322 216 192 186 168 186 106 35 217 240 140 173 168 153 185 256 81 152 143
352 348 346 342 340 339 338 334 333 332 329 327 325 327 331 339 331 327 3 45 336 333 253 288 245 235 234 227 226 231 197 195 150 165 177 180 215 140 188 175 157 196 199 214 224 122 44
345 343 344 344 342 340 338 338 337 334 331 327 323 322 324 336 330 332 281 329 344 336 36 278 243 237 197 201 241 218 200 184 173 194 174 216 251 228 229 228 156 213 210 199 173 128 219
340 339 341 341 340 338 335 333 333 336 335 329 326 323 317 315 307 315 268 298 344 320 340 246 184 155 173 163 152 202 201 191 177 182 120 230 184 150 216 241 156 230 155 197 183 95 75
352 348 344 342 339 337 336 334 330 329 329 324 325 320 308 301 299 283 272 244 348 43 255 321 138 160 129 203 229 141 187 199 233 174 207 228 242 177 225 240 193 79 71 46 53 60 318
352 349 347 346 344 344 342 340 338 337 331 324 324 315 299 283 271 244 291 154 47 162 317 345 323 175 157 177 167 145 171 204 190 129 281 327 270 251 187 262 149 96 88 52 25 4 226
351 350 351 353 355 354 352 350 349 347 341 330 331 315 294 278 243 224 177 60 193 240 256 319 326 192 187 160 196 202 159 217 233 99 116 158 318 180 176 184 194 172 153 154 194 187 239
350 352 354 358 0 358 354 351 349 348 344 335 335 332 320 231 198 188 175 106 205 212 307 356 332 43 346 101 44 160 198 217 208 163 174 154 273 284 195 199 143 181 151 182 99 1 57
350 355 357 359 357 355 354 352 350 350 349 340 340 355 16 147 161 168 88 234 248 267 358 358 284 26 352 330 346 172 180 213 220 184 164 220 282 227 283 141 124 161 162 92 13 135 234
352 353 354 353 353 354 353 352 351 351 352 350 352 41 32 128 136 139 152 230 264 290 334 305 227 323 244 308 228 244 242 244 206 153 153 144 121 268 30 216 163 71 188 54 113 125 157
353 353 353 352 352 351 353 354 353 353 357 2 2 49 137 143 44 47 157 213 317 293 298 247 219 222 228 200 281 251 240 215 142 165 169 204 157 243 235 270 218 108 172 137 128 217 153
351 351 350 350 350 351 353 356 357 355 1 360 360 356 129 260 72 343 314 300 272 327 298 268 259 216 221 206 228 209 233 262 284 175 191 177 213 251 322 349 6 145 158 120 113 89 184
346 347 348 351 351 352 354 356 358 358 0 1 8 8 355 55 77 45 360 291 337 323 284 342 249 7 323 254 216 258 236 270 326 211 328 163 147 170 222 215 157 143 175 127 128 113 167
349 351 355 355 352 353 353 357 360 358 3 13 19 31 13 324 337 335 242 300 324 0 331 350 350 12 338 335 335 246 250 272 248 252 116 175 189 170 223 212 157 153 168 169 120 162 157
353 354 354 354 356 358 357 355 360 2 6 24 27 7 349 301 307 303 5 357 340 349 287 327 347 324 30 139 183 277 350 283 219 269 131 339 172 177 291 205 182 162 172 168 147 145 203
350 352 350 353 358 357 355 352 355 4 13 36 17 3 326 304 332 347 30 333 316 348 286 335 319 306 309 314 308 279 262 255 258 262 157 86 172 65 224 125 81 23 211 183 164 180 146
349 347 346 349 355 358 357 354 356 2 13 18 24 9 358 290 320 339 323 322 308 309 266 295 331 342 299 322 317 300 263 260 254 250 269 118 298 115 170 60 177 237 285 182 175 174 206
344 345 347 347 352 353 354 355 357 358 3 10 32 3 322 291 276 294 350 316 312 312 291 288 312 314 313 312 359 336 322 300 269 222 200 127 131 99 128 184 275 270 186 182 165 241 193
338 342 344 345 344 345 350 353 357 3 6 5 342 302 287 298 249 234 328 300 317 320 327 293 329 322 332 128 72 307 265 246 240 213 69 74 102 100 140 154 205 239 199 137 88 306 192
334 343 346 342 340 340 343 344 345 343 340 341 337 284 280 268 281 270 253 293 305 283 271 304 334 322 357 100 112 159 273 258 248 198 172 116 116 168 145 127 289 252 283 129 113 235 214
330 338 341 340 337 339 340 339 338 336 332 328 323 300 272 269 277 278 274 272 252 239 256 338 334 340 330 60 137 166 273 293 298 274 21 143 137 177 113 138 246 208 235 164 194 256 234
324 333 334 335 331 330 333 334 336 333 326 320 321 320 287 275 261 282 278 274 257 270 269 243 254 332 275 287 11 96 170 314 338 259 26 52 226 160 175 209 303 310 277 158 176 149 188